Location: Newark
(16.3678°N, 77.8722°E)
Time: 23:35:07
(UTC+00:00)

S-56A Canister/Altair - Pass Details

Date: 15 December 2019
Orbit: 634 x 2498 km, 38.9° (Epoch: 26 January)

Event Time Altitude Azimuth Distance (km) Brightness Sun altitude
Rises 05:19:57 0° 288° (WNW) 5,605 11.6 45.4°
Reaches altitude 10° 05:24:16 10° 300° (WNW) 4,820 11.3 45.9°
Maximum altitude 05:35:53 29° 354° (N) 3,807 11.0 47.1°
Drops below altitude 10° 05:48:03 10° 49° (NE) 5,046 11.6 48.1°
Sets 05:52:45 0° 60° (ENE) 5,901 12.0 48.5°
